Location: Unspecified
(0.0000°N, 0.0000°E)
Time: 10:50:00
(UTC+00:00)

Courier 1B - All Passes

Search period start: 23 January 2021 00:00
Search period end: 02 February 2021 00:00
Orbit: 962 x 1209 km, 28.3° (Epoch: 22 January)

Date Brightness Start Highest point End Pass type
(mag) Time Alt. Az. Time Alt. Az. Time Alt. Az.
23 Jan - 05:34:37 10° NNW 05:39:45 23° NNE 05:45:06 10° ENE visible
23 Jan - 07:27:06 10° WNW 07:34:01 81° NNE 07:41:25 10° ESE daylight
23 Jan - 09:22:11 10° W 09:28:27 31° SSW 09:35:04 10° SSE daylight
23 Jan - 11:21:53 10° SSW 11:23:54 11° SSW 11:25:57 10° S daylight
23 Jan - 17:07:49 10° SSW 17:13:36 23° SSE 17:19:10 10° ESE daylight
23 Jan - 19:00:48 10° SW 19:08:18 70° SSE 19:15:17 10° ENE visible
23 Jan - 20:56:07 10° W 21:02:30 34° NNW 21:08:33 10° NE visible
24 Jan - 04:41:50 10° NNW 04:45:47 16° NNE 04:49:50 10° ENE visible
24 Jan - 06:33:33 10° NW 06:40:10 58° NNE 06:47:13 10° ESE daylight
24 Jan - 08:27:51 10° W 08:34:26 42° SSW 08:41:25 10° SE daylight
24 Jan - 10:25:47 10° SW 10:29:32 14° SSW 10:33:22 10° S daylight
24 Jan - 16:14:31 10° SSW 16:19:22 17° SSE 16:24:06 10° ESE daylight
24 Jan - 18:06:57 10° SW 18:14:21 51° SSE 18:21:19 10° ENE daylight
24 Jan - 20:01:34 10° WSW 20:08:38 48° NNW 20:15:16 10° NE visible
24 Jan - 21:59:48 10° NW 22:03:12 14° NNW 22:06:31 10° N visible
25 Jan - 03:49:44 10° N 03:51:44 11° NNE 03:53:45 10° NE visible
25 Jan - 05:40:10 10° NW 05:46:21 41° NNE 05:52:51 10° E visible
25 Jan - 07:33:47 10° WNW 07:40:30 57° SSW 07:47:41 10° SE daylight
25 Jan - 09:30:30 10° WSW 09:35:17 18° SSW 09:40:14 10° SSE daylight
25 Jan - 15:21:30 10° S 15:25:02 13° SSE 15:28:33 10° SE daylight
25 Jan - 17:13:13 10° SW 17:20:19 38° SSE 17:27:06 10° E daylight
25 Jan - 19:07:14 10° WSW 19:14:45 67° NNW 19:21:47 10° NE visible
25 Jan - 21:04:11 10° WNW 21:09:09 20° NNW 21:13:57 10° NNE visible
26 Jan - 04:46:58 10° NNW 04:52:30 29° NNE 04:58:15 10° E visible
26 Jan - 06:39:56 10° WNW 06:46:39 79° SSW 06:53:48 10° SE daylight
26 Jan - 08:35:39 10° WSW 08:41:08 24° SSW 08:46:54 10° SSE daylight
26 Jan - 14:29:36 10° S 14:30:36 10° SSE 14:31:37 10° SSE daylight
26 Jan - 16:19:38 10° SSW 16:26:14 29° SSE 16:32:36 10° E daylight
26 Jan - 18:13:05 10° WSW 18:20:49 89° SSE 18:28:06 10° ENE daylight
26 Jan - 20:09:04 10° W 20:15:10 27° NNW 20:20:58 10° NNE visible
27 Jan - 03:53:57 10° NNW 03:58:38 21° NNE 04:03:24 10° ENE visible
27 Jan - 05:46:16 10° NW 05:52:50 75° NNE 05:59:48 10° ESE visible
27 Jan - 07:41:09 10° W 07:47:07 32° SSW 07:53:26 10° SSE daylight
27 Jan - 09:40:45 10° SSW 09:42:24 11° SSW 09:44:04 10° S daylight
27 Jan - 15:26:13 10° SSW 15:32:02 22° SSE 15:37:46 10° ESE daylight
27 Jan - 17:19:05 10° SW 17:26:51 67° SSE 17:34:14 10° ENE daylight
27 Jan - 19:14:17 10° W 19:21:12 38° NNW 19:27:46 10° NE visible
27 Jan - 21:13:56 10° NW 21:16:04 11° NNW 21:18:10 10° N visible
28 Jan - 03:01:14 10° N 03:04:40 15° NNE 03:08:07 10° ENE visible
28 Jan - 04:52:44 10° NW 04:59:04 53° NNE 05:05:39 10° ESE visible
28 Jan - 06:46:54 10° W 06:53:11 43° SSW 06:59:50 10° SE daylight
28 Jan - 08:44:39 10° SW 08:48:07 14° SSW 08:51:39 10° S daylight
28 Jan - 14:33:00 10° SSW 14:37:46 17° SSE 14:42:31 10° ESE daylight
28 Jan - 16:25:16 10° SW 16:32:50 49° SSE 16:40:07 10° ENE daylight
28 Jan - 18:19:45 10° WSW 18:27:15 53° NNW 18:34:21 10° NE daylight
28 Jan - 20:17:36 10° WNW 20:21:54 16° NNW 20:26:05 10° NNE visible
29 Jan - 02:09:38 10° NNE 02:10:36 10° NNE 02:11:35 10° NNE night (unlit)
29 Jan - 03:59:23 10° NW 04:05:17 37° NNE 04:11:20 10° E visible
29 Jan - 05:52:54 10° WNW 05:59:20 60° SSW 06:06:08 10° SE daylight
29 Jan - 07:49:26 10° WSW 07:53:56 18° SSW 07:58:36 10° SSE daylight
29 Jan - 13:40:11 10° S 13:43:25 13° SSE 13:46:40 10° SE daylight
29 Jan - 15:31:37 10° SW 15:38:45 37° SSE 15:45:45 10° E daylight
29 Jan - 17:25:28 10° WSW 17:33:16 73° NNW 17:40:45 10° NE daylight
29 Jan - 19:22:09 10° WNW 19:27:49 22° NNW 19:33:15 10° NNE visible
30 Jan - 03:06:10 10° NNW 03:11:28 26° NNE 03:16:49 10° E visible
30 Jan - 04:59:04 10° WNW 05:05:34 84° SSW 05:12:20 10° ESE visible
30 Jan - 06:54:39 10° WSW 06:59:53 24° SSW 07:05:20 10° SSE daylight
30 Jan - 14:38:07 10° SSW 14:44:37 28° SSE 14:51:05 10° E daylight
30 Jan - 16:31:22 10° WSW 16:39:17 85° SSE 16:46:57 10° ENE daylight
30 Jan - 18:27:08 10° W 18:33:45 31° NNW 18:40:07 10° NNE visible
31 Jan - 02:13:08 10° NNW 02:17:34 19° NNE 02:21:59 10° ENE visible
31 Jan - 04:05:24 10° NW 04:11:49 70° NNE 04:18:25 10° ESE visible
31 Jan - 06:00:11 10° W 06:05:57 32° SSW 06:11:57 10° SE daylight
31 Jan - 08:00:12 10° SSW 08:01:02 10° SSW 08:01:52 10° S daylight
31 Jan - 13:44:49 10° SSW 13:50:25 21° SSE 13:56:03 10° ESE daylight
31 Jan - 15:37:28 10° SW 15:45:15 63° SSE 15:52:55 10° ENE daylight
31 Jan - 17:32:26 10° W 17:39:43 42° NNW 17:46:46 10° NE daylight
31 Jan - 19:31:17 10° NW 19:34:41 13° NNW 19:38:00 10° N visible
01 Feb - 01:20:23 10° N 01:23:34 14° NNE 01:26:44 10° NE night (unlit)
01 Feb - 03:11:52 10° NW 03:18:05 49° NNE 03:24:21 10° ESE visible
01 Feb - 05:05:58 10° W 05:12:06 44° SSW 05:18:27 10° SE visible
01 Feb - 07:03:41 10° SW 07:06:49 13° SSW 07:10:02 10° S daylight
01 Feb - 12:51:49 10° SSW 12:56:10 16° SSE 13:00:34 10° ESE daylight
01 Feb - 14:43:45 10° SW 14:51:12 47° SSE 14:58:40 10° E daylight
01 Feb - 16:37:59 10° WSW 16:45:42 57° NNW 16:53:12 10° NE daylight
01 Feb - 18:35:25 10° WNW 18:40:28 18° NNW 18:45:23 10° NNE visible
